{"data":{"norad_id":30580,"epoch":"2026-05-24T15:17:21.545088Z","epoch_age_seconds":109880,"freshness":"FRESH","line1":"1 30580U 07004A   26144.63705492 -.00000083  00000+0  22805-1 0  9999","line2":"2 30580   8.0492 111.7440 8373644 194.5906  97.3897  0.87844138 41076","mean_motion":0.87844138,"eccentricity":0.8373644,"inclination_deg":8.0492,"raan_deg":111.744,"arg_perigee_deg":194.5906,"mean_anomaly_deg":97.3897,"bstar":0.022805,"rev_number":4107,"period_min":1639.2670390823,"perigee_km":1111.755777314,"apogee_km":78238.406664818,"semimajor_km":46053.218221066,"source":"CELESTRAK","updated_at":"2026-05-25T13:37:55.093533Z"}}